THOR ABLESTAR DEB, 715

Orbit data source: Space-Track

THOR ABLESTAR DEB, 715 is space debris in LEO originally from a launch on Thu, 05 Dec 1963 UTC launched from the Air Force Western Test Range (AFWTR). Debris objects in space refer to the collection of defunct objects orbiting the Earth. Examples of debris include non-operational satellites, rocket bodies, and fragments generated from explosions, collisions, or faulty payload assembly.

Loading next visibility...
Identifier
715, 1963-049E
Orbit
LEO
Country
Flag of USUS
Related business
Manufacturer
Unknown
Mission
Spacecraft
Bus & Motor
Unknown
Mass
Unknown
Launch date (UTC)
1963-12-05 (62 years ago)
Launch vehicle
Unknown
Launch site
Air Force Western Test Range (AFWTR)
Object type
Payload
Rocket body
Debris
Shape & HBR
Unknown shape, 0.1 m
Radar Cross Section
Small (<0.1 m²)

Expand to show TLE details & history
Last TLE update: 23 hours ago

TLE from 23 hours ago
0 THOR ABLESTAR DEB
1 00715U 63049E   26035.11150801  .00000982  00000-0  10086-2 0  9994
2 00715  89.9062  78.8315 0029596 199.7066 187.5082 13.75428911 85094
Epoch: 2026-02-04T02:40Z
TLE epoch observation values (Epoch: 2026-02-04T02:40:34.292Z)
Latitude
27.20667°
Longitude
-95.54619°
Altitude
1,005.152 km
Speed
7.341 km/s
True Right ascension
05h 15m 31s
True Declination
27° 04' 18"
Sunlit
Object was in full shadow at epoch
Visualization orbit readout
Latitude
Unknown
Longitude
Unknown
Altitude
Unknown
Speed
Unknown
Apparent Right ascension
Unknown
Apparent Declination
Unknown
Sunlit
N/A
Visualization observer readout
Local Sidereal Time
03:53:11
Azimuth
Unknown
Elevation
Unknown
Doppler factor
Unknown
Orbital elements
Apogee altitude
998.926 km
Perigee altitude
955.389 km
Semi-major axis
7,355.294 km
Eccentricity
0.00296
Inclination
89.9062°
RAAN
78.8315°
Arg. of periapsis
199.7066°
True anomaly
187.46405°
Mean anomaly
187.5082°
Eccentric anomaly
187.48611°
Mean motion
3.44067 °/min
Orbital period
104.63 mins
BSTAR
0.0010086
Loading maneuver chart data...
Computing Atmospheric mass density...
Loading historical data...
Loading historical data...
Loading historical data...
Loading historical data...
Loading historical data...
Loading historical data...
Loading historical data...

Documentation

Showing up to 5 results
|